Skip Page Navigation
NASA JPL Caltech
NASA Logo - Jet Propulsion Laboratory + View the NASA Portal
+ Near-Earth Object (NEO) Program
Search JPL
JPL Home Earth Solar System Stars & Galaxies Technology
JPL Solar System Dynamics
BODIES ORBITS EPHEMERIDES TOOLS PHYSICAL DATA DISCOVERY FAQ SITE MAP
JPL Small-Body Database Browser
Search: [ help ]  
4201 Orosz (1984 JA1)
Classification: Main-belt Asteroid          SPK-ID: 2004201
Ephemeris | Orbit Diagram | Orbital Elements | Physical Parameters | Discovery Circumstances ]

[ hide orbit diagram ]
Orbit Diagram
Note: Make sure you have Java enabled on your browser to see the applet. This applet is provided as a 3D orbit visualization tool. The applet was implemented using 2-body methods, and hence should not be used for determining accurate long-term trajectories (over several years or decades) or planetary encounter circumstances. For accurate long-term ephemerides, please instead use our Horizons system.
Orbit Viewer

Additional Notes: the orbits shown in the applet are color coded. The planets are white lines, and the asteroid/comet is a blue line. The bright white line indicates the portion of the orbit that is above the ecliptic plane, and the darker portion is below the ecliptic plane. Likewise for the asteroid/comet orbit, the light blue indicates the portion above the ecliptic plane, and the dark blue the portion below the ecliptic plane.

Orbit Viewer applet originally written and kindly provided by Osamu Ajiki (AstroArts), and further modified by Ron Baalke (JPL).


Orbital Elements at Epoch 2456400.5 (2013-Apr-18.0) TDB
Reference: MPO250246 (heliocentric ecliptic J2000)
 Element Value Uncertainty (1-sigma)   Units 
e 0.2288444 n/a  
a 3.1581433 n/a AU
q 2.4354199 n/a AU
i 8.87404 n/a deg
node 238.18209 n/a deg
peri 14.07704 n/a deg
M 45.00884 n/a deg
tp 2456144.2042057
(2012-Aug-04.70420570)
n/a JED
period 2049.9636502
5.61
n/a
n/a
d
yr
n 0.17561287 n/a deg/d
Q 3.8808667 n/a AU
  Orbit Determination Parameters
   # obs. used (total)      947  
   first obs. used      1950-??-??  
   last obs. used      2012-08-13  
   # oppositions      24  
   planetary ephem.      DE403  
   condition code      0  
   fit RMS      0.53  
   data source      MPC:mpn  
   producer      MPCLINUX  

Additional Information
 T_jup = 3.146 

Ephemeris | Orbit Diagram | Orbital Elements | Physical Parameters | Discovery Circumstances ]

Physical Parameter Table
Parameter Symbol Value Units Sigma Reference Notes
absolute magnitude H 11.10 mag n/a IRAS-A-FPA-3-RDR-IMPS-V6.0 IRAS observations used: 5
diameter diameter 29.73 km 4.9 IRAS-A-FPA-3-RDR-IMPS-V6.0 IRAS observations used: 5
rotation period rot_per 17.3849 h n/a Asteroid Lightcurve DataBase (Rev. 2013-May-01) Published Reference List:
[Behrend, R. (2001) Observatoire de Geneve web site, http://obswww.unige.ch/~behrend/page_cou.html]
[Behrend, R. (2007) Observatoire de Geneve web site, http://obswww.unige.ch/~behrend/page_cou.html]
geometric albedo albedo 0.0726   0.031 IRAS-A-FPA-3-RDR-IMPS-V6.0 IRAS observations used: 5

4201 Orosz (1984 JA1)          Discovered 1984-May-03 by Skiff, B. A. at Flagstaff
Reference: DISCOVERY.DBLast Updated: 2003-08-29

Alternate Designations
 1984 JA1 = 1950 LR = 1967 JH = 1969 UB = 1974 SR2 = 1975 WX 
Ephemeris | Orbit Diagram | Orbital Elements | Physical Parameters | Discovery Circumstances ]
ABOUT SSD CREDITS/AWARDS PRIVACY/COPYRIGHT GLOSSARY LINKS
FirstGov 2013-May-23 04:55 UT
(server date/time)  
NASA Home Page
Site Manager:   Donald K. Yeomans
Webmaster  Alan B. Chamberlin